N1EVH Weather Reports


time (UTC)temp
F
wind
direction
speed
knots
gust
knots
rain 1hr
in
rain 24hr
in
rain mn
in
humidity
%
barometer
mb
20260507101006 49 294 0.9 6.1 0.07 0.14 0.11 78 1007.4
20260507100504 49 274 2.6 7.0 0.08 0.14 0.11 78 1007.4
20260507100004 49 310 0.9 7.0 0.08 0.14 0.11 78 1007.1
20260507095504 49 285 2.6 7.8 0.07 0.13 0.10 78 1007.1
20260507095006 49 289 2.6 6.1 0.08 0.13 0.10 78 1007.2
20260507094006 50 313 4.3 10.4 0.06 0.11 0.08 78 1007.1
20260507093006 50 21 3.5 8.7 0.05 0.10 0.07 78 1006.9
20260507092504 51 288 2.6 10.4 0.05 0.10 0.07 78 1007.0
20260507092006 51 287 0.9 4.3 0.05 0.09 0.06 78 1007.0
20260507091516 51 271 2.6 7.8 0.04 0.08 0.05 78 1007.1
20260507091033 52 289 1.7 7.0 0.03 0.07 0.04 78 1007.1
20260507090504 52 274 0.0 2.6 0.02 0.06 0.03 78 1007.3
20260507090004 52 275 0.9 2.6 0.02 0.06 0.03 78 1007.2
20260507085504 52 291 0.0 5.2 0.02 0.06 0.03 78 1007.2
20260507085005 52 262 2.6 6.1 0.01 0.05 0.02 78 1007.3
20260507084504 52 286 2.6 6.1 0.02 0.05 0.02 77 1007.1
20260507083504 52 292 2.6 6.1 0.02 0.05 0.02 77 1006.9
20260507083006 53 289 0.9 2.6 0.02 0.05 0.02 76 1006.9
20260507082504 53 324 1.7 2.6 0.02 0.05 0.02 76 1006.8
20260507082006 53 291 0.9 5.2 0.01 0.04 0.01 76 1006.5
20260507081504 53 291 0.9 5.2 0.01 0.04 0.01 75 1006.8
20260507080004 53 329 3.5 7.8 0.01 0.04 0.01 73 1006.7
20260507075504 54 9 3.5 7.8 0.01 0.04 0.01 73 1006.6
20260507075006 54 267 2.6 10.4 0.01 0.04 0.01 72 1006.8
20260507074504 54 330 5.2 10.4 0.00 0.03 0.00 71 1006.8
20260507074006 54 279 6.1 10.4 0.00 0.03 0.00 70 1006.9
20260507073504 54 280 1.7 5.2 0.00 0.03 0.00 70 1006.6
20260507073006 54 296 2.6 5.2 0.00 0.03 0.00 70 1006.1
20260507072504 54 345 0.9 7.0 0.00 0.03 0.00 70 1006.1
20260507072006 54 340 2.6 7.0 0.00 0.03 0.00 70 1006.1
20260507071005 54 296 4.3 12.2 0.00 0.03 0.00 70 1006.3
20260507070504 54 260 2.6 11.3 0.00 0.03 0.00 70 1006.1
20260507070008 54 322 3.5 8.7 0.00 0.03 0.00 71 1006.0
20260507065504 55 280 2.6 8.7 0.00 0.03 0.00 72 1006.2
20260507065006 55 252 4.3 8.7 0.00 0.03 0.00 72 1006.2
20260507064504 55 310 3.5 13.0 0.00 0.03 0.00 73 1006.3
20260507064006 55 45 2.6 8.7 0.00 0.03 0.00 74 1006.2
20260507063504 55 289 4.3 8.7 0.00 0.03 0.00 75 1006.1
20260507062006 56 292 0.9 7.8 0.00 0.03 0.00 76 1005.7
20260507061504 56 289 4.3 11.3 0.00 0.03 0.00 76 1005.8
20260507061006 56 282 2.6 7.8 0.00 0.03 0.00 76 1006.0
20260507060504 56 271 5.2 10.4 0.00 0.03 0.00 76 1006.2
20260507060004 56 277 5.2 8.7 0.00 0.03 0.00 76 1006.1
20260507055504 57 339 2.6 7.8 0.00 0.03 0.00 77 1006.1
20260507055006 57 282 0.9 6.1 0.00 0.03 0.00 77 1006.3
20260507054504 57 284 4.3 8.7 0.00 0.03 0.00 77 1006.5
20260507054006 57 248 6.1 11.3 0.00 0.03 0.00 77 1006.4
20260507053504 57 287 1.7 8.7 0.00 0.03 0.00 77 1006.3
20260507053006 57 304 5.2 10.4 0.00 0.03 0.00 77 1006.3
20260507051504 57 298 4.3 8.7 0.00 0.03 0.00 79 1006.1
20260507051006 57 264 4.3 10.4 0.00 0.03 0.00 79 1006.1
20260507050504 58 304 7.0 13.9 0.00 0.03 0.00 80 1006.1
20260507050005 58 289 7.8 15.6 0.00 0.03 0.00 80 1006.2
20260507045504 59 306 4.3 11.3 0.00 0.03 0.00 81 1006.1
20260507045006 59 271 6.1 11.3 0.00 0.03 0.00 81 1006.1
20260507043504 59 277 6.1 10.4 0.00 0.03 0.00 81 1005.8
20260507042504 60 243 5.2 7.8 0.00 0.03 0.00 81 1005.9
20260507042007 60 226 4.3 8.7 0.00 0.03 0.00 81 1006.0
20260507041006 60 273 3.5 6.1 0.00 0.03 0.00 81 1006.2
20260507040504 60 271 1.7 6.1 0.00 0.03 0.00 81 1006.3
20260507035006 60 224 6.1 10.4 0.00 0.03 0.03 81 1006.1
20260507034005 60 229 6.1 13.9 0.00 0.03 0.03 80 1005.9
20260507033504 60 225 7.8 14.8 0.00 0.03 0.03 80 1006.0
20260507033006 60 222 10.4 13.0 0.00 0.03 0.03 80 1005.9
20260507032504 60 219 8.7 13.9 0.00 0.03 0.03 80 1005.8
20260507032006 60 213 10.4 13.9 0.00 0.03 0.03 80 1005.7
20260507031504 60 214 8.7 13.9 0.00 0.03 0.03 79 1005.7
20260507030504 60 213 6.1 10.4 0.00 0.03 0.03 80 1005.4
20260507024504 60 217 8.7 13.9 0.00 0.03 0.03 79 1005.7
20260507024005 60 209 7.8 13.0 0.00 0.03 0.03 79 1005.7
20260507023504 60 225 9.6 13.9 0.00 0.03 0.03 79 1005.7
20260507022504 60 211 8.7 13.9 0.00 0.03 0.03 80 1005.7
20260507022006 60 232 7.0 12.2 0.00 0.03 0.03 80 1005.7
20260507021504 60 216 8.7 13.0 0.00 0.03 0.03 80 1005.8
20260507021006 60 217 7.8 11.3 0.00 0.03 0.03 80 1005.6
20260507020504 60 213 5.2 10.4 0.00 0.03 0.03 80 1005.7
20260507020004 59 220 5.2 10.4 0.00 0.03 0.03 80 1005.6
20260507015006 59 234 5.2 14.8 0.00 0.03 0.03 80 1005.8
20260507013504 59 211 9.6 13.9 0.00 0.03 0.03 80 1005.9
20260507012504 59 194 7.0 11.3 0.00 0.03 0.03 80 1006.0
20260507012006 59 211 7.8 15.6 0.00 0.03 0.03 80 1006.0
20260507011504 59 210 9.6 14.8 0.00 0.03 0.03 80 1006.1
20260507011006 59 220 8.7 15.6 0.00 0.03 0.03 80 1006.2
20260507010004 58 217 7.8 12.2 0.00 0.03 0.03 80 1006.2
20260507005504 58 205 7.8 12.2 0.01 0.03 0.03 80 1006.2
20260507005006 58 199 7.8 12.2 0.01 0.03 0.03 80 1006.1
20260507004503 58 202 5.2 12.2 0.01 0.03 0.03 80 1006.2
20260507004006 58 202 5.2 12.2 0.01 0.03 0.03 80 1006.1
20260507003504 58 199 5.2 10.4 0.01 0.03 0.03 80 1006.2
20260507003006 58 208 8.7 12.2 0.01 0.03 0.03 80 1006.1
20260507002504 58 223 7.8 13.0 0.02 0.03 0.03 80 1006.1
20260507001007 58 209 7.8 13.0 0.02 0.03 0.03 80 1005.8
20260507000505 58 207 8.7 17.4 0.02 0.03 0.03 80 1005.8
20260507000005 58 207 7.8 14.8 0.02 0.03 0.03 80 1005.9
20260506235504 58 207 7.8 13.9 0.01 0.02 0.02 81 1006.0
20260506235006 58 191 6.1 14.8 0.01 0.02 0.02 80 1006.0
20260506234504 58 202 6.1 11.3 0.01 0.02 0.02 80 1006.0
20260506233505 58 202 6.1 11.3 0.01 0.02 0.02 80 1005.9
20260506232504 58 193 5.2 10.4 0.00 0.01 0.01 80 1005.9
20260506232006 58 178 5.2 8.7 0.00 0.01 0.01 80 1005.9
20260506231504 58 201 5.2 11.3 0.00 0.01 0.01 80 1006.0
20260506231006 58 204 5.2 13.0 0.00 0.01 0.01 80 1006.0
20260506230504 58 183 6.1 12.2 0.00 0.01 0.01 80 1006.0
20260506230004 59 198 4.3 8.7 0.00 0.01 0.01 80 1006.0
20260506225504 59 204 2.6 10.4 0.00 0.01 0.01 79 1005.9
20260506224505 59 193 5.2 13.0 0.01 0.01 0.01 79 1006.2
20260506224006 59 192 5.2 11.3 0.01 0.01 0.01 79 1006.2
20260506223005 60 205 5.2 13.0 0.01 0.01 0.01 78 1006.3
20260506222504 60 198 6.1 10.4 0.01 0.01 0.01 78 1006.3
20260506222006 60 188 5.2 8.7 0.01 0.01 0.01 78 1006.4
20260506221504 60 183 5.2 8.7 0.01 0.01 0.01 77 1006.4
20260506221006 61 179 5.2 12.2 0.01 0.01 0.01 78 1006.4
20260506220504 61 181 5.2 10.4 0.01 0.01 0.01 78 1006.5
20260506220004 61 198 5.2 8.7 0.01 0.01 0.01 77 1006.7
20260506215504 61 194 5.2 11.3 0.01 0.01 0.01 77 1006.7
20260506215006 61 244 7.0 11.3 0.00 0.00 0.00 77 1006.7
20260506214504 61 198 5.2 10.4 0.00 0.00 0.00 76 1006.8
20260506214006 61 175 5.2 8.7 0.00 0.00 0.00 75 1006.8
20260506213503 62 198 6.1 13.0 0.00 0.00 0.00 75 1006.8
20260506213006 62 198 7.8 13.9 0.00 0.00 0.00 74 1006.8
20260506212504 62 198 7.0 12.2 0.00 0.00 0.00 74 1006.8
20260506212006 62 206 10.4 20.9 0.00 0.00 0.00 74 1006.8
20260506211006 62 227 6.1 13.0 0.00 0.00 0.00 74 1006.8
20260506210504 62 209 8.7 14.8 0.00 0.00 0.00 74 1006.8
20260506205504 62 194 6.1 11.3 0.00 0.00 0.00 74 1007.0
20260506205006 62 150 5.2 12.2 0.00 0.00 0.00 73 1007.0
20260506204006 62 185 6.1 11.3 0.00 0.00 0.00 72 1007.0
20260506203504 62 193 7.0 12.2 0.00 0.00 0.00 71 1007.1
20260506203006 62 166 6.1 13.0 0.00 0.00 0.00 71 1007.1
20260506202504 63 186 4.3 10.4 0.00 0.00 0.00 71 1007.0
20260506202005 63 201 6.1 12.2 0.00 0.00 0.00 71 1006.9
20260506201504 63 194 5.2 11.3 0.00 0.00 0.00 70 1006.8
20260506201005 63 196 6.1 10.4 0.00 0.00 0.00 70 1006.8
20260506200004 64 172 5.2 13.0 0.00 0.00 0.00 69 1006.8
20260506195504 64 192 6.1 14.8 0.00 0.00 0.00 68 1006.9
20260506195006 64 197 5.2 10.4 0.00 0.00 0.00 68 1007.1
20260506194504 64 198 7.0 13.0 0.00 0.00 0.00 67 1007.2
20260506194006 65 201 6.1 10.4 0.00 0.00 0.00 66 1007.2
20260506193504 65 188 5.2 10.4 0.00 0.00 0.00 66 1007.2
20260506192504 66 201 5.2 12.2 0.00 0.00 0.00 65 1007.1
20260506192005 66 140 5.2 10.4 0.00 0.00 0.00 64 1007.1
20260506191504 66 187 5.2 12.2 0.00 0.00 0.00 63 1007.1
20260506191006 66 169 5.2 10.4 0.00 0.00 0.00 63 1007.0
20260506190504 66 195 6.1 13.9 0.00 0.00 0.00 63 1007.0
20260506190005 67 190 6.1 12.2 0.00 0.00 0.00 63 1007.0
20260506185504 67 198 6.1 13.0 0.00 0.00 0.00 62 1007.1
20260506185006 67 184 7.0 10.4 0.00 0.00 0.00 62 1007.1
20260506184504 67 192 7.0 15.6 0.00 0.00 0.00 62 1007.2
20260506184006 67 194 7.0 12.2 0.00 0.00 0.00 62 1007.1
20260506183504 67 191 6.1 11.3 0.00 0.00 0.00 62 1007.1
20260506183006 67 197 7.8 14.8 0.00 0.00 0.00 62 1007.2
20260506182006 68 172 7.8 18.2 0.00 0.00 0.00 61 1007.3
20260506181504 68 189 7.8 18.2 0.00 0.00 0.00 61 1007.3
20260506175504 69 197 8.7 19.1 0.00 0.00 0.00 60 1007.6
20260506174504 69 193 7.0 17.4 0.00 0.00 0.00 60 1007.7
20260506174006 69 182 7.8 12.2 0.00 0.00 0.00 60 1007.8
20260506173504 70 186 6.1 11.3 0.00 0.00 0.00 60 1007.8
20260506172504 69 186 6.1 13.0 0.00 0.00 0.00 60 1007.9
20260506172007 69 200 7.8 17.4 0.00 0.00 0.00 60 1007.9
20260506171006 69 206 7.0 13.9 0.00 0.00 0.00 60 1007.9
20260506170504 69 185 7.8 14.8 0.00 0.00 0.00 60 1008.0
20260506170004 69 204 7.8 13.0 0.00 0.00 0.00 60 1008.1
20260506165504 69 197 6.1 13.9 0.00 0.00 0.00 60 1008.1
20260506165006 69 194 5.2 14.8 0.00 0.00 0.00 60 1008.1
20260506164504 69 202 8.7 17.4 0.00 0.00 0.00 60 1008.2
20260506162504 69 196 8.7 19.1 0.00 0.00 0.00 60 1008.5
20260506162005 69 176 8.7 14.8 0.00 0.00 0.00 60 1008.6
20260506161504 69 207 8.7 17.4 0.00 0.00 0.00 60 1008.6
20260506161006 69 202 7.8 13.9 0.00 0.00 0.00 60 1008.7
20260506160504 69 180 9.6 17.4 0.00 0.00 0.00 60 1008.9
20260506160004 70 200 8.7 17.4 0.00 0.00 0.00 60 1008.9
20260506155006 70 203 6.1 13.9 0.00 0.00 0.00 60 1009.1
20260506154504 70 213 6.1 13.9 0.00 0.00 0.00 59 1009.0
20260506154006 70 179 8.7 17.4 0.00 0.00 0.00 59 1009.2
20260506153504 71 187 7.8 13.0 0.00 0.00 0.00 59 1009.3
20260506153006 71 146 7.0 18.2 0.00 0.00 0.00 59 1009.2
20260506152504 71 216 8.7 17.4 0.00 0.00 0.00 59 1009.3
20260506152006 71 196 10.4 17.4 0.00 0.00 0.00 59 1009.4
20260506151504 71 184 7.8 14.8 0.00 0.00 0.00 59 1009.4
20260506151006 70 234 8.7 14.8 0.00 0.00 0.00 60 1009.5
20260506150505 70 203 7.8 13.0 0.00 0.00 0.00 60 1009.5
20260506150004 69 196 8.7 12.2 0.00 0.00 0.00 60 1009.6
20260506145504 69 194 6.1 12.2 0.00 0.00 0.00 61 1009.4
20260506145006 69 197 7.8 13.9 0.00 0.00 0.00 61 1009.4
20260506144504 69 183 8.7 14.8 0.00 0.00 0.00 61 1009.4
20260506144006 69 170 7.8 11.3 0.00 0.00 0.00 61 1009.4
20260506143503 68 188 7.0 15.6 0.00 0.00 0.00 62 1009.4
20260506143005 68 181 6.1 11.3 0.00 0.00 0.00 61 1009.3
20260506142504 68 207 7.8 13.0 0.00 0.00 0.00 62 1009.3
20260506142006 68 190 6.1 13.9 0.00 0.00 0.00 62 1009.3
20260506141504 68 183 5.2 12.2 0.00 0.00 0.00 63 1009.4
20260506141006 67 208 5.2 12.2 0.00 0.00 0.00 63 1009.5
20260506140504 67 184 7.0 10.4 0.00 0.00 0.00 63 1009.5
20260506140004 66 188 5.2 10.4 0.00 0.00 0.00 64 1009.5
20260506135504 66 196 5.2 11.3 0.00 0.00 0.00 64 1009.4
20260506134504 65 191 7.0 11.3 0.00 0.00 0.00 64 1009.8
20260506134007 65 213 5.2 10.4 0.00 0.00 0.00 64 1009.9
20260506133504 65 199 6.1 13.0 0.00 0.00 0.00 64 1010.0
20260506132504 65 195 6.1 13.9 0.00 0.00 0.00 64 1010.0
20260506131504 65 209 6.1 12.2 0.00 0.00 0.00 65 1009.9
20260506131006 65 171 7.0 12.2 0.00 0.00 0.00 65 1009.9
20260506130504 65 194 7.8 14.8 0.00 0.00 0.00 65 1009.9
20260506125504 64 211 10.4 14.8 0.00 0.00 0.00 66 1009.9
20260506124504 64 204 9.6 17.4 0.00 0.00 0.00 67 1010.2
20260506123504 63 203 7.0 13.9 0.00 0.00 0.00 68 1010.1
20260506123006 63 209 8.7 17.4 0.00 0.00 0.00 68 1010.0
20260506122504 62 201 7.8 14.8 0.00 0.00 0.00 69 1009.8
20260506121504 62 209 7.8 15.6 0.00 0.00 0.00 69 1009.9
20260506121006 62 210 6.1 11.3 0.00 0.00 0.00 70 1010.1
20260506120504 62 216 7.8 12.2 0.00 0.00 0.00 70 1010.3
20260506120004 61 217 7.0 11.3 0.00 0.00 0.00 70 1010.3
20260506115506 61 200 6.1 12.2 0.00 0.00 0.00 70 1010.2
20260506115006 61 180 7.0 13.9 0.00 0.00 0.00 70 1010.3
20260506114504 61 195 7.0 13.0 0.00 0.00 0.00 71 1010.6
20260506114007 61 186 5.2 11.3 0.00 0.00 0.00 71 1010.6
20260506113504 61 208 6.1 10.4 0.00 0.00 0.00 71 1010.5
20260506113006 61 175 6.1 10.4 0.00 0.00 0.00 71 1010.3
20260506112006 60 211 6.1 11.3 0.00 0.00 0.00 72 1010.4
20260506111504 60 201 5.2 10.4 0.00 0.00 0.00 72 1010.4
20260506111006 60 184 6.1 10.4 0.00 0.00 0.00 72 1010.4
20260506110004 60 190 5.2 11.3 0.00 0.00 0.00 72 1010.4
20260506105005 60 211 4.3 11.3 0.00 0.00 0.00 71 1010.3
20260506104504 60 188 4.3 7.8 0.00 0.00 0.00 71 1010.3
20260506103504 60 188 3.5 7.8 0.00 0.00 0.00 70 1010.5
20260506102504 61 198 7.0 13.9 0.00 0.00 0.00 70 1010.4
20260506102007 61 180 4.3 8.7 0.00 0.00 0.00 70 1010.3
20260506101504 61 201 5.2 10.4 0.00 0.00 0.00 70 1010.4